Location: Unspecified
(42.1900°N, 71.3291°W)
Time: 18:13:09
(UTC-05:00)

CZ-3 Stage 3 - Visible Passes

Search period start: 20 February 2018 00:00
Search period end: 02 March 2018 00:00
Orbit: 436 x 34761 km, 31.0° (Epoch: 18 February)

Date Brightness Start Highest point End Pass type
(mag) Time Alt. Az. Time Alt. Az. Time Alt. Az.
20 Feb 9.7 07:25:42 10° SE 07:55:29 11° SE 08:15:59 10° SE visible
22 Feb 6.8 06:53:38 10° S 12:07:04 31° SSE 12:23:34 10° ESE visible
23 Feb 9.7 07:02:13 10° SE 07:47:02 12° SE 08:13:38 10° SE visible
25 Feb 6.8 06:36:04 10° S 11:57:51 32° SSE 12:14:22 10° ESE visible
26 Feb 9.7 06:41:13 10° SE 07:38:30 13° SE 08:08:57 10° ESE visible
28 Feb 6.8 06:18:57 10° S 11:48:38 34° SSE 12:05:10 10° ESE visible
01 Mar 9.7 06:21:31 10° SE 07:29:53 13° SE 08:03:06 10° ESE visible
